This demonstration page uses our WeatherBlox Daily Observations layout. Learn more.

Left ArrowRight Arrow

39.29038, -76.61219

Hourly Observations for November 4, 2016

Temp ( °F °C ) Dew Point ( °F °C ) Humidity (%) Winds ( mph kmh ) Pressure ( in mb ) Visibility ( mi km ) Precip ( " mm )
12:54 am 00:54 undefined 62 16.7 46 7.8 56 56 undefined N/A 30.02 1017 N/A 0.00 0.00
1:54 am 01:54 undefined 61 16.1 47 8.3 60 60 undefined N/A 30.02 1017 N/A 0.00 0.00
2:54 am 02:54 undefined 60 15.6 45 7.2 58 58 undefined N/A 30.05 1018 N/A 0.00 0.00
3:54 am 03:54 undefined 60 15.6 43 6.1 53 53 undefined N/A 30.06 1018 N/A 0.00 0.00
4:54 am 04:54 undefined 59 15 43 6.1 56 56 undefined N/A 30.09 1019 N/A 0.00 0.00
5:54 am 05:54 undefined 58 14.4 43 6.1 58 58 undefined N/A 30.12 1020 N/A 0.00 0.00
6:54 am 06:54 undefined 57 13.9 43 6.1 60 60 undefined N/A 30.14 1021 N/A 0.00 0.00
7:54 am 07:54 undefined 55 12.8 40 4.4 57 57 undefined N/A 30.18 1022 N/A 0.00 0.00
8:54 am 08:54 undefined 55 12.8 39 3.9 55 55 undefined N/A 30.21 1023 N/A 0.00 0.00
9:54 am 09:54 undefined 56 13.3 37 2.8 49 49 undefined N/A 30.22 1023 N/A 0.00 0.00
10:54 am 10:54 undefined 57 13.9 36 2.2 45 45 undefined N/A 30.22 1023 N/A 0.00 0.00
11:54 am 11:54 undefined 58 14.4 36 2.2 44 44 undefined N/A 30.20 1023 N/A 0.00 0.00
12:54 pm 12:54 undefined 60 15.6 37 2.8 42 42 undefined N/A 30.20 1023 N/A 0.00 0.00
1:54 pm 13:54 undefined 60 15.6 35 1.7 39 39 undefined N/A 30.20 1023 N/A 0.00 0.00
2:54 pm 14:54 undefined 61 16.1 34 1.1 36 36 undefined N/A 30.20 1023 N/A 0.00 0.00
3:54 pm 15:54 undefined 61 16.1 33 0.6 35 35 undefined N/A 30.21 1023 N/A 0.00 0.00
4:54 pm 16:54 undefined 60 15.6 31 -0.6 33 33 undefined N/A 30.22 1023 N/A 0.00 0.00
5:54 pm 17:54 undefined 60 15.6 32 0 35 35 undefined N/A 30.23 1024 N/A 0.00 0.00
6:54 pm 18:54 undefined 59 15 32 0 36 36 undefined N/A 30.24 1024 N/A 0.00 0.00
7:54 pm 19:54 undefined 58 14.4 32 0 38 38 undefined N/A 30.25 1024 N/A 0.00 0.00
8:54 pm 20:54 undefined 55 12.8 34 1.1 45 45 undefined N/A 30.27 1025 N/A 0.00 0.00
9:54 pm 21:54 undefined 54 12.2 34 1.1 47 47 undefined N/A 30.27 1025 N/A 0.00 0.00
10:54 pm 22:54 undefined 53 11.7 35 1.7 51 51 undefined N/A 30.28 1025 N/A 0.00 0.00
11:54 pm 23:54 undefined 52 11.1 33 0.6 49 49 undefined N/A 30.27 1025 N/A 0.00 0.00

Powered by AerisWeather